| time (UTC) | temp F | wind direction | speed MPH | gust MPH | rain 1hr in | rain 24hr in | rain mn in | humidity % | barometer mb |
| 20260904053039 | 80 | 30 | 0.0 | 0.0 | 0.00 | 0.13 | 0.00 | 96 | 1011.3 |
| 20260904051546 | 79 | 30 | 0.0 | 0.0 | 0.00 | 0.13 | 0.00 | 96 | 1011.3 |
| 20260904050040 | 79 | 30 | 0.0 | 0.0 | 0.00 | 0.13 | 0.00 | 96 | 1011.2 |
| 20260904044537 | 80 | 30 | 0.0 | 0.0 | 0.00 | 0.13 | 0.13 | 96 | 1011.1 |
| 20260904043036 | 79 | 30 | 0.0 | 0.0 | 0.00 | 0.13 | 0.13 | 96 | 1011.1 |
| 20260904041540 | 79 | 30 | 0.0 | 0.0 | 0.00 | 0.13 | 0.13 | 96 | 1011.2 |
| 20260904040036 | 79 | 30 | 0.0 | 0.0 | 0.00 | 0.13 | 0.13 | 96 | 1011.1 |
| 20260904034548 | 79 | 30 | 0.0 | 0.0 | 0.00 | 0.13 | 0.13 | 96 | 1011.1 |
| 20260904033034 | 79 | 30 | 0.0 | 0.0 | 0.00 | 0.13 | 0.13 | 96 | 1011.1 |
| 20260904031533 | 79 | 30 | 0.0 | 0.0 | 0.00 | 0.13 | 0.13 | 96 | 1011.2 |
| 20260904030035 | 79 | 30 | 0.0 | 0.0 | 0.00 | 0.13 | 0.13 | 96 | 1011.2 |
| 20260904024533 | 79 | 30 | 0.0 | 0.0 | 0.00 | 0.13 | 0.13 | 96 | 1011.1 |
| 20260904023032 | 79 | 30 | 0.0 | 0.0 | 0.00 | 0.13 | 0.13 | 95 | 1011.0 |
| 20260904021533 | 79 | 30 | 0.0 | 0.0 | 0.00 | 0.13 | 0.13 | 95 | 1010.7 |
| 20260904020031 | 79 | 30 | 0.0 | 0.0 | 0.00 | 0.13 | 0.13 | 95 | 1010.6 |
| 20260904014531 | 79 | 30 | 0.0 | 0.0 | 0.00 | 0.15 | 0.13 | 95 | 1010.5 |
| 20260904013033 | 79 | 30 | 0.0 | 0.0 | 0.00 | 0.15 | 0.13 | 95 | 1010.3 |
| 20260904011555 | 79 | 30 | 0.0 | 0.0 | 0.00 | 0.15 | 0.13 | 94 | 1010.3 |
| 20260904010031 | 80 | 30 | 0.0 | 0.0 | 0.00 | 0.15 | 0.13 | 94 | 1010.2 |
| 20260904004530 | 80 | 30 | 0.0 | 0.0 | 0.00 | 0.15 | 0.13 | 94 | 1010.1 |
| 20260904003028 | 80 | 30 | 0.0 | 0.0 | 0.00 | 0.15 | 0.13 | 93 | 1010.2 |
| 20260904001528 | 81 | 30 | 0.0 | 0.0 | 0.00 | 0.15 | 0.13 | 92 | 1010.4 |
| 20260904000037 | 81 | 30 | 0.0 | 0.0 | 0.00 | 0.15 | 0.13 | 91 | 1010.5 |
| 20260903234536 | 81 | 30 | 0.0 | 0.0 | 0.00 | 0.15 | 0.13 | 92 | 1010.6 |
| 20260903233024 | 80 | 30 | 0.0 | 0.0 | 0.00 | 0.15 | 0.13 | 93 | 1010.6 |
| 20260903231524 | 79 | 30 | 0.0 | 0.0 | 0.00 | 0.15 | 0.13 | 94 | 1010.7 |
| 20260903230037 | 79 | 30 | 0.0 | 0.0 | 0.00 | 0.15 | 0.13 | 95 | 1010.7 |
| 20260903224523 | 79 | 30 | 0.0 | 0.0 | 0.00 | 0.15 | 0.13 | 94 | 1010.7 |
| 20260903223022 | 79 | 30 | 0.0 | 0.0 | 0.00 | 0.15 | 0.13 | 94 | 1010.6 |
| 20260903221520 | 79 | 37 | 0.0 | 0.0 | 0.00 | 0.15 | 0.13 | 94 | 1010.7 |
| 20260903220018 | 79 | 38 | 0.0 | 0.0 | 0.00 | 0.15 | 0.13 | 95 | 1011.0 |
| 20260903214523 | 79 | 38 | 0.0 | 0.0 | 0.00 | 0.15 | 0.13 | 95 | 1011.1 |
| 20260903213029 | 79 | 38 | 0.0 | 0.0 | 0.01 | 0.15 | 0.13 | 95 | 1011.3 |
| 20260903211520 | 78 | 38 | 0.0 | 0.0 | 0.02 | 0.15 | 0.13 | 94 | 1011.5 |
| 20260903210017 | 78 | 39 | 0.0 | 0.0 | 0.02 | 0.15 | 0.13 | 94 | 1011.7 |
| 20260903204517 | 78 | 38 | 0.0 | 0.0 | 0.02 | 0.15 | 0.13 | 94 | 1011.8 |
| 20260903203027 | 78 | 38 | 0.0 | 0.0 | 0.01 | 0.14 | 0.12 | 94 | 1011.9 |
| 20260903201520 | 78 | 46 | 0.0 | 0.0 | 0.00 | 0.13 | 0.11 | 94 | 1011.9 |
| 20260903200015 | 78 | 26 | 0.0 | 0.0 | 0.00 | 0.13 | 0.11 | 94 | 1011.8 |
| 20260903194516 | 78 | 26 | 0.0 | 0.0 | 0.10 | 0.13 | 0.11 | 94 | 1011.9 |
| 20260903193023 | 77 | 355 | 0.0 | 0.0 | 0.10 | 0.13 | 0.11 | 94 | 1012.0 |
| 20260903191512 | 77 | 5 | 0.0 | 0.0 | 0.10 | 0.13 | 0.11 | 92 | 1012.3 |
| 20260903190011 | 78 | 5 | 0.0 | 0.0 | 0.10 | 0.13 | 0.11 | 89 | 1012.2 |
| 20260903184506 | 80 | 328 | 0.0 | 0.0 | 0.00 | 0.03 | 0.01 | 85 | 1012.6 |
| 20260903183006 | 81 | 164 | 0.0 | 0.0 | 0.00 | 0.03 | 0.01 | 85 | 1012.9 |
| 20260903181502 | 82 | 30 | 0.0 | 0.0 | 0.00 | 0.03 | 0.01 | 85 | 1012.7 |
| 20260903180104 | 84 | 64 | 0.0 | 0.0 | 0.00 | 0.03 | 0.01 | 79 | 1012.6 |
| 20260903180000 | 84 | 95 | 0.0 | 0.0 | 0.00 | 0.03 | 0.01 | 80 | 1012.6 |
| 20260903174601 | 87 | 16 | 0.0 | 0.0 | 0.00 | 0.03 | 0.01 | 80 | 1012.6 |
| 20260903173100 | 87 | 29 | 0.0 | 0.0 | 0.00 | 0.03 | 0.01 | 77 | 1012.7 |
| 20260903171613 | 87 | 269 | 0.0 | 0.0 | 0.00 | 0.03 | 0.01 | 78 | 1012.3 |
| 20260903164629 | 87 | 67 | 0.0 | 0.0 | 0.00 | 0.03 | 0.01 | 81 | 1012.7 |
| 20260903163101 | 87 | 248 | 0.0 | 0.0 | 0.00 | 0.03 | 0.01 | 80 | 1012.6 |
| 20260903161552 | 86 | 248 | 0.0 | 0.0 | 0.00 | 0.03 | 0.01 | 82 | 1012.6 |
| 20260903160053 | 85 | 248 | 0.0 | 0.0 | 0.00 | 0.03 | 0.01 | 87 | 1012.5 |
| 20260903154550 | 85 | 153 | 0.0 | 0.0 | 0.00 | 0.03 | 0.01 | 87 | 1012.7 |
| 20260903153042 | 85 | 153 | 0.0 | 0.0 | 0.00 | 0.03 | 0.01 | 85 | 1012.6 |
| 20260903151540 | 85 | 153 | 0.0 | 0.0 | 0.00 | 0.03 | 0.01 | 85 | 1012.7 |
| 20260903150039 | 85 | 153 | 0.0 | 0.0 | 0.00 | 0.03 | 0.01 | 85 | 1012.8 |
| 20260903144544 | 85 | 153 | 0.0 | 0.0 | 0.00 | 0.03 | 0.01 | 85 | 1013.0 |
| 20260903143044 | 84 | 154 | 0.0 | 0.0 | 0.00 | 0.03 | 0.01 | 86 | 1012.9 |
| 20260903141534 | 83 | 154 | 0.0 | 0.0 | 0.00 | 0.03 | 0.01 | 87 | 1012.8 |
| 20260903140040 | 83 | 154 | 0.0 | 1.0 | 0.00 | 0.03 | 0.01 | 88 | 1012.8 |
| 20260903134531 | 82 | 154 | 0.0 | 0.0 | 0.00 | 0.03 | 0.01 | 88 | 1012.8 |
| 20260903133029 | 82 | 154 | 0.0 | 1.0 | 0.00 | 0.03 | 0.01 | 87 | 1012.7 |
| 20260903131529 | 82 | 154 | 0.0 | 1.0 | 0.00 | 0.03 | 0.01 | 86 | 1012.5 |
| 20260903130029 | 82 | 154 | 0.0 | 1.0 | 0.00 | 0.03 | 0.01 | 86 | 1012.4 |
| 20260903124527 | 82 | 154 | 0.0 | 2.0 | 0.00 | 0.03 | 0.01 | 85 | 1012.2 |
| 20260903123026 | 82 | 154 | 0.0 | 5.0 | 0.00 | 0.03 | 0.01 | 85 | 1012.1 |
| 20260903121531 | 82 | 157 | 0.0 | 6.0 | 0.00 | 0.03 | 0.01 | 86 | 1011.9 |
| 20260903120037 | 82 | 181 | 0.0 | 3.0 | 0.00 | 0.03 | 0.01 | 86 | 1011.8 |
| 20260903114521 | 82 | 154 | 1.0 | 3.0 | 0.00 | 0.03 | 0.01 | 87 | 1011.7 |
| 20260903113021 | 82 | 148 | 1.0 | 4.0 | 0.00 | 0.03 | 0.01 | 87 | 1011.7 |
| 20260903111515 | 82 | 186 | 0.0 | 4.0 | 0.00 | 0.03 | 0.01 | 87 | 1011.7 |
| 20260903110012 | 82 | 192 | 1.0 | 4.0 | 0.00 | 0.03 | 0.01 | 87 | 1011.7 |
| 20260903104512 | 83 | 164 | 0.0 | 3.0 | 0.00 | 0.03 | 0.01 | 88 | 1011.6 |
| 20260903103011 | 82 | 165 | 1.0 | 5.0 | 0.00 | 0.03 | 0.01 | 88 | 1011.3 |
| 20260903101520 | 82 | 146 | 0.0 | 3.0 | 0.00 | 0.03 | 0.01 | 88 | 1011.3 |
| 20260903100021 | 82 | 187 | 3.0 | 6.0 | 0.00 | 0.03 | 0.01 | 88 | 1011.3 |
| 20260903094523 | 82 | 122 | 0.0 | 3.0 | 0.00 | 0.03 | 0.01 | 88 | 1011.4 |
| 20260903093009 | 82 | 154 | 0.0 | 5.0 | 0.00 | 0.03 | 0.01 | 88 | 1011.3 |
| 20260903091509 | 82 | 178 | 2.0 | 6.0 | 0.00 | 0.03 | 0.01 | 87 | 1011.4 |
| 20260903090009 | 82 | 172 | 1.0 | 4.0 | 0.00 | 0.03 | 0.01 | 87 | 1011.3 |
| 20260903084508 | 82 | 162 | 1.0 | 5.0 | 0.00 | 0.03 | 0.01 | 88 | 1011.3 |
| 20260903083007 | 82 | 181 | 1.0 | 5.0 | 0.00 | 0.03 | 0.01 | 89 | 1011.2 |
| 20260903081507 | 82 | 178 | 0.0 | 6.0 | 0.00 | 0.03 | 0.01 | 89 | 1011.1 |
| 20260903080007 | 82 | 178 | 1.0 | 5.0 | 0.00 | 0.03 | 0.01 | 89 | 1011.1 |
| 20260903074506 | 82 | 136 | 1.0 | 4.0 | 0.00 | 0.03 | 0.01 | 90 | 1011.0 |
| 20260903073006 | 82 | 180 | 0.0 | 3.0 | 0.00 | 0.03 | 0.01 | 91 | 1011.0 |
| 20260903071507 | 82 | 181 | 0.0 | 4.0 | 0.00 | 0.03 | 0.01 | 91 | 1011.1 |
| 20260903070004 | 82 | 138 | 0.0 | 4.0 | 0.00 | 0.03 | 0.01 | 91 | 1011.3 |
| 20260903064502 | 82 | 163 | 0.0 | 4.0 | 0.01 | 0.03 | 0.01 | 91 | 1011.4 |
| 20260903063001 | 82 | 201 | 0.0 | 2.0 | 0.01 | 0.03 | 0.01 | 92 | 1011.3 |
| 20260903061604 | 82 | 167 | 0.0 | 5.0 | 0.01 | 0.03 | 0.01 | 91 | 1011.6 |
| 20260903060101 | 82 | 155 | 0.0 | 2.0 | 0.01 | 0.03 | 0.01 | 90 | 1011.9 |
| 20260903054552 | 83 | 155 | 0.0 | 4.0 | 0.00 | 0.02 | 0.00 | 87 | 1012.2 |